TimeICT,TemperatureF,Dew PointF,Humidity,Sea Level PressureIn,VisibilityMPH,Wind Direction,Wind SpeedMPH,Gust SpeedMPH,PrecipitationIn,Events,Conditions,WindDirDegrees,DateUTC
12:00 AM,77.0,73.4,89,29.86,3.7,Calm,Calm,-,N/A,,Mostly Cloudy,0,2012-11-26 17:00:00
12:30 AM,77.0,73.4,89,29.86,3.7,Calm,Calm,-,N/A,,Mostly Cloudy,0,2012-11-26 17:30:00
1:00 AM,77.0,73.4,89,29.86,3.7,Calm,Calm,-,N/A,,Mostly Cloudy,0,2012-11-26 18:00:00
1:30 AM,77.0,73.4,89,29.86,3.7,Calm,Calm,-,N/A,,Mostly Cloudy,0,2012-11-26 18:30:00
2:30 AM,77.0,73.4,89,29.83,3.7,Calm,Calm,-,N/A,,Mostly Cloudy,0,2012-11-26 19:30:00
3:00 AM,75.2,71.6,89,29.80,3.7,Calm,Calm,-,N/A,,Mostly Cloudy,0,2012-11-26 20:00:00
3:30 AM,75.2,71.6,89,29.80,3.7,Calm,Calm,-,N/A,,Mostly Cloudy,0,2012-11-26 20:30:00
4:30 AM,73.4,71.6,94,29.80,3.7,Calm,Calm,-,N/A,,Mostly Cloudy,0,2012-11-26 21:30:00
5:30 AM,75.2,71.6,89,29.83,3.7,Calm,Calm,-,N/A,,Mostly Cloudy,0,2012-11-26 22:30:00
6:00 AM,75.2,71.6,89,29.83,3.1,NNE,3.5,-,N/A,,Mostly Cloudy,30,2012-11-26 23:00:00
6:30 AM,75.2,71.6,89,29.83,3.1,NE,3.5,-,N/A,,Mostly Cloudy,50,2012-11-26 23:30:00
7:00 AM,75.2,71.6,89,29.83,3.1,NNE,3.5,-,N/A,,Mostly Cloudy,20,2012-11-27 00:00:00
7:30 AM,75.2,71.6,89,29.86,3.1,North,3.5,-,N/A,,Mostly Cloudy,10,2012-11-27 00:30:00
8:00 AM,77.0,71.6,83,29.86,3.1,NE,3.5,-,N/A,,Mostly Cloudy,40,2012-11-27 01:00:00
8:30 AM,78.8,73.4,83,29.86,3.1,North,5.8,-,N/A,,Mostly Cloudy,350,2012-11-27 01:30:00
9:00 AM,80.6,73.4,79,29.86,3.1,NNW,4.6,-,N/A,,Mostly Cloudy,340,2012-11-27 02:00:00
9:30 AM,82.4,73.4,74,29.89,3.1,NNW,6.9,-,N/A,,Mostly Cloudy,340,2012-11-27 02:30:00
10:00 AM,86.0,73.4,66,29.89,3.7,Calm,Calm,-,N/A,,Mostly Cloudy,0,2012-11-27 03:00:00
10:30 AM,86.0,73.4,66,29.86,3.7,Calm,Calm,-,N/A,,Mostly Cloudy,0,2012-11-27 03:30:00
11:00 AM,86.0,73.4,66,29.86,3.7,Calm,Calm,-,N/A,,Mostly Cloudy,0,2012-11-27 04:00:00
11:30 AM,87.8,73.4,62,29.86,3.7,Calm,Calm,-,N/A,,Mostly Cloudy,0,2012-11-27 04:30:00
12:00 PM,87.8,73.4,62,29.86,3.7,Calm,Calm,-,N/A,,Mostly Cloudy,0,2012-11-27 05:00:00
12:30 PM,91.4,71.6,52,29.83,4.3,Calm,Calm,-,N/A,,Mostly Cloudy,0,2012-11-27 05:30:00
1:00 PM,89.6,69.8,52,29.83,4.3,SSW,6.9,-,N/A,,Mostly Cloudy,210,2012-11-27 06:00:00
1:30 PM,87.8,71.6,58,29.83,4.3,SSE,6.9,-,N/A,,Mostly Cloudy,160,2012-11-27 06:30:00
2:00 PM,87.8,69.8,55,29.80,4.3,SW,4.6,-,N/A,,Mostly Cloudy,220,2012-11-27 07:00:00
2:30 PM,86.0,69.8,58,29.80,4.3,South,4.6,-,N/A,,Mostly Cloudy,190,2012-11-27 07:30:00
3:00 PM,86.0,69.8,58,29.80,4.3,SSW,4.6,-,N/A,,Mostly Cloudy,200,2012-11-27 08:00:00
3:30 PM,84.2,73.4,70,29.77,4.3,SW,4.6,-,N/A,,Mostly Cloudy,220,2012-11-27 08:30:00
4:00 PM,84.2,73.4,70,29.77,4.3,West,4.6,-,N/A,,Mostly Cloudy,260,2012-11-27 09:00:00
4:30 PM,82.4,73.4,74,29.77,4.3,SW,4.6,-,N/A,,Mostly Cloudy,230,2012-11-27 09:30:00
5:00 PM,82.4,75.2,79,29.77,4.3,West,4.6,-,N/A,,Mostly Cloudy,260,2012-11-27 10:00:00
5:30 PM,82.4,75.2,79,29.77,3.7,West,4.6,-,N/A,,Mostly Cloudy,270,2012-11-27 10:30:00
6:00 PM,80.6,75.2,84,29.80,3.7,West,3.5,-,N/A,,Mostly Cloudy,280,2012-11-27 11:00:00
6:30 PM,80.6,75.2,84,29.80,3.7,NNW,4.6,-,N/A,,Mostly Cloudy,340,2012-11-27 11:30:00
7:00 PM,80.6,75.2,84,29.80,3.7,NW,3.5,-,N/A,,Mostly Cloudy,310,2012-11-27 12:00:00
7:30 PM,80.6,75.2,84,29.83,3.7,NW,4.6,-,N/A,,Mostly Cloudy,320,2012-11-27 12:30:00
8:00 PM,80.6,75.2,84,29.83,3.7,Calm,Calm,-,N/A,,Mostly Cloudy,0,2012-11-27 13:00:00
8:30 PM,78.8,75.2,89,29.83,3.7,Calm,Calm,-,N/A,,Mostly Cloudy,0,2012-11-27 13:30:00
9:00 PM,78.8,75.2,89,29.83,3.7,Calm,Calm,-,N/A,,Mostly Cloudy,0,2012-11-27 14:00:00
9:30 PM,78.8,75.2,89,29.83,3.7,Calm,Calm,-,N/A,,Mostly Cloudy,0,2012-11-27 14:30:00
10:00 PM,78.8,75.2,89,29.86,3.7,Calm,Calm,-,N/A,,Mostly Cloudy,0,2012-11-27 15:00:00
10:30 PM,78.8,73.4,83,29.86,3.1,Calm,Calm,-,N/A,,Mostly Cloudy,0,2012-11-27 15:30:00
11:00 PM,78.8,75.2,89,29.86,3.1,Calm,Calm,-,N/A,,Mostly Cloudy,0,2012-11-27 16:00:00
11:30 PM,77.0,73.4,89,29.86,3.1,Calm,Calm,-,N/A,,Mostly Cloudy,0,2012-11-27 16:30:00